Regional Weather Roundup
Issued by NWS Upton, NY

Current Version | Previous Version | Graphics & Text | Print | Product List | Glossary Off
Versions: 1 2 3 4 5 6 7 8 9 10 11 12 13 14 15 16 17 18 19 20 21 22 23 24 25 26 27 28 29 30 31 32 33 34 35 36 37 38 39 40 41 42 43 44 45 46 47 48 49 50

000
ASUS41 KOKX 220408
RWROKX

REGIONAL WEATHER ROUNDUP
NATIONAL WEATHER SERVICE NEW YORK NY
1100 PM EST TUE FEB 21 2017

NOTE: "FAIR" INDICATES FEW OR NO CLOUDS BELOW 12,000 FEET WITH NO
SIGNIFICANT WEATHER AND/OR OBSTRUCTIONS TO VISIBILITY.

NYZ071-072-176-178-NJZ106-104-220500-
NEW YORK CITY METRO AREA

CITY           SKY/WX    TMP DP  RH WIND       PRES   REMARKS
Central Park   CLOUDY    43  32  65 MISG      30.16F
Wall St Helipt NOT AVBL
LaGuardia APRT CLOUDY    44  32  62 SW10      30.15F
Kennedy INTL   CLOUDY    41  37  86 SW8       30.17F
Breezy Point     N/A     39 N/A N/A SW5         N/A
Newark/Liberty CLOUDY    42  33  70 S10       30.15F
Teterboro      NOT AVBL
$$

NYZ177-179-078>081-220500-
LONG ISLAND NEW YORK

CITY           SKY/WX    TMP DP  RH WIND       PRES   REMARKS
Jones Beach      N/A     41 N/A N/A SW6         N/A
Matinecock PT    N/A     41 N/A N/A SW9         N/A
Farmingdale    NOT AVBL
MacArthur/ISP  CLOUDY    40  35  83 SW6       30.15F
Shirley        NOT AVBL
Westhampton    NOT AVBL
Southampton    NOT AVBL
Bridgehampton  NOT AVBL
East Hampton     N/A     39  33  78 SW5       30.17F
Montauk          N/A     40  35  83 SW5       30.18F
$$

NYZ052-065-067-220500-
HUDSON VALLEY

CITY           SKY/WX    TMP DP  RH WIND       PRES   REMARKS
White Plains   NOT AVBL
Newburgh       MOCLDY    41  32  70 SW8       30.13F
Montgomery     NOT AVBL
Poughkeepsie   NOT AVBL
Albany         DRIZZLE   41  27  57 S9G18     30.05F
$$

NJZ001-105-106-008-010-013-015-019>022-104-220500-
NEW JERSEY

CITY           SKY/WX    TMP DP  RH WIND       PRES   REMARKS
Newark/Liberty CLOUDY    42  33  70 S10       30.15F
Teterboro      NOT AVBL
Caldwell       NOT AVBL
Somerville     NOT AVBL
Linden         NOT AVBL
Sussex         NOT AVBL
Andover          N/A     40  30  67 CALM      30.11F
Trenton        NOT AVBL
Millville      NOT AVBL
Atlantic City  PTCLDY    40  33  76 CALM      30.17F
Wrightstown    CLOUDY    38  33  85 VRB3      30.13F
Toms River     NOT AVBL
Belmar         NOT AVBL
$$

PAZ047>061-062-071-220500-
EASTERN PENNSYLVANIA

CITY           SKY/WX    TMP DP  RH WIND       PRES   REMARKS
Philadelphia   CLOUDY    42  33  70 S7        30.16F
Allentown      NOT AVBL
Scranton       NOT AVBL
$$

CTZ002-004>006-009-010-012-RIZ004-006-007-MAZ004-011-015-220500-
SOUTHERN NEW ENGLAND
 IN CT

CITY           SKY/WX    TMP DP  RH WIND       PRES   REMARKS
Bradley INTL   CLOUDY    36  30  79 S8        30.13F WCI  30
Hartford       PTCLDY    37  30  75 S5        30.14F WCI  33
Danbury        NOT AVBL
Wtrbury/Oxford CLOUDY    36  28  75 SW5       30.12F WCI  32
Bridgeport     NOT AVBL
Meriden        CLOUDY    38  31  76 S6        30.14F WCI  33
New Haven      NOT AVBL
Chester          N/A     37  32  81 S6        30.14F WCI  33
Groton         MOCLDY    38  33  82 S6        30.16F WCI  33
Wilimantic     PTCLDY    37  31  78 S3        30.15F

 IN RI

CITY           SKY/WX    TMP DP  RH WIND       PRES   REMARKS
Providence     MOCLDY    35  29  78 S5        30.16F WCI  31
Block Island   PTCLDY    40  34  79 SW8       30.17F WCI  34
Westerly       PTCLDY    39  32  76 SW3       30.17F
 IN MA

CITY           SKY/WX    TMP DP  RH WIND       PRES   REMARKS
Boston         CLOUDY    38  29  70 SW13      30.14F WCI  30
Worcester      PTCLDY    34  26  72 SW14      30.07F WCI  25
Westfield      CLOUDY    36  28  73 S9        30.10F WCI  29
Provincetown   CLOUDY    37  30  75 SW12      30.17F WCI  29
Nantucket      CLOUDY    37  31  78 SW9       30.18F WCI  30
$$

ANZ330-335-338-340-345-350-353-355-220500-
COASTAL MARINE OBSERVATIONS


STATION/POSITION TIME  SKY/WX   TEMP    WIND        PRES    VSBY  WAVE
                                AIR SEA DIR/SP/G                  HT/PER
                 (UTC)          (F)     (DEG/KT/KT) (MB)    (MI)  (FT/S)
NY HARB ENTRANCE 0250            42 42  200/  8/ 10 1022.2          2/ 3
20 S FIRE ISLAND 0350            43 43  190/ 10/ 12 1021.3          2/ 6
GREAT SOUTH BAY  NOT AVBL
23 SSW MONTAUK P 0250            43 46              1022.8          2/ 3
15 E BARNEGAT LI 0330               43                N/A           3/ 7
HUDSON CANYON    0250               49              1022.9          2/ 7
KINGS POINT      0342            42 40              1020.9
EXECUTION ROCKS  NOT AVBL
CENTRAL LI SOUND 0300            39     200/  6/  6   N/A           0
EASTERN LI SOUND NOT AVBL
ROBBINS REEF     0342            42     200/  7/  8 1021.6
$$


>>>>>>>>>>>>>>>>>>>>>>>>>>>> KEY <<<<<<<<<<<<<<<<<<<<<<<<<<<
>                                                          <
>     SKY/WX - Sky Condition/Present Weather               <
>     TMP    - Temperature in Fahrenheit                   <
>     DP     - Dew Point in Fahrenheit                     <
>     RH     - Relative Humidity in Percent                <
>     WIND   - Direction (from) and Speed in MPH           <
>     PRES   - Mean Sea Level Pressure (inches of Hg)      <
>     WCI    - Wind Chill Index                            <
>     VSB    - VISIBILITY IN MILES                         <
>     HX     - HEAT INDEX                                  <
>     TC     - TEMPERATURE IN CELSIUS                      <
>     VRB    - VARIABLE WIND DIRECTION                     <
>                                                          <
>>>>>>>>>>>>>>>>>>>>>>>>>>>> KEY <<<<<<<<<<<<<<<<<<<<<<<<<<<



USA.gov is the U.S. government's official web portal to all federal, state and local government web resources and services.